Regional Weather Roundup
Issued by NWS Sioux Falls, SD

Home | Current Version | Previous Version | Graphics & Text | Print | Product List | Glossary Off
Versions: 1 2 3 4 5 6 7 8 9 10 11 12 13 14 15 16 17 18 19 20 21 22 23 24 25 26 27 28 29 30 31 32 33 34 35 36 37 38 39 40 41 42 43 44 45 46 47 48 49 50

000
ASUS43 KFSD 041610
RWRFSD

WEATHER ROUNDUP FOR SE SOUTH DAKOTA/SW MINNESOTA/NW IOWA
NATIONAL WEATHER SERVICE SIOUX FALLS SD
1000 AM CST WED MAR 04 2015

NOTE: "FAIR" INDICATES FEW OR NO CLOUDS BELOW 12,000 FEET WITH NO
SIGNIFICANT WEATHER AND OR OBSTRUCTIONS TO VISIBILITY.


SDZ038>040-050-052>070-041700-
SOUTHEAST SOUTH DAKOTA

CITY           SKY/WX    TMP DP  RH WIND       PRES   REMARKS
CHAMBERLAIN    NOT AVBL
HURON          SUNNY      6  -6  57 NW26G32   30.30R WCI -16
MADISON        FAIR       7   1  78 NW23      30.20R WCI -14
MITCHELL       SUNNY     10  -2  58 NW25      30.32R WCI -11
SIOUX FALLS    SUNNY     11   0  61 NW18G29   30.23R WCI  -7
WINNER         FAIR      11  -4  51 NW21      30.29R WCI  -8
YANKTON        SUNNY     16   1  53 NW25      30.30R WCI  -3
$$

MNZ071-072-080-081-089-090-097-098-041700-
SOUTHWEST MINNESOTA

CITY           SKY/WX    TMP DP  RH WIND       PRES   REMARKS
FAIRMONT       MOSUNNY    9  -2  61 NW13      30.23R WCI  -7
JACKSON        PTSUNNY   10  -4  52 NW10      30.21R WCI  -3
LUVERNE        SUNNY     14   3  62 W21G26    30.22R WCI  -4
MARSHALL       CLOUDY     7  -2  66 N14       30.25R WCI -10
MONTEVIDEO     SUNNY      7   0  72 N13G18    30.26R WCI  -9
PIPESTONE      SUNNY      3  -2  78 NW9       30.18R WCI -11
REDWOOD FALLS  PTSUNNY    6  -4  63 NW10      30.25R WCI  -9
TRACY          CLOUDY     7  -3  63 W5        30.23R WCI  -2
WINDOM         CLOUDY     7   0  72 W9        30.22R HAZE    WCI  -7
WORTHINGTON    PTSUNNY   10   1  67 W15       30.21R WCI  -6
$$

IAZ001>003-012>014-020>022-031-032-NEZ013-014-SDZ071-041700-
NORTHWEST IOWA

CITY           SKY/WX    TMP DP  RH WIND       PRES   REMARKS
DENISON        SUNNY     19   5  53 SW7G14    30.25S WCI  10
ESTHERVILLE    SUNNY      9  -2  61 NW12      30.22R WCI  -6
SIOUX CITY     SUNNY     24   4  42 W23G30    30.25F WCI   9
SPENCER        SUNNY     16   4  59 W15       30.21S WCI   1
$$

ABBREVIATIONS USED IN REMARKS
   TC - TEMPERATURE IN CELSIUS
  WCI - WIND CHILL INDEX
   HX - HEAT INDEX
  VSB - VISIBILITY



USA.gov is the U.S. government's official web portal to all federal, state and local government web resources and services.